Time,TemperatureF,DewpointF,PressureIn,WindDirection,WindDirectionDegrees,WindSpeedMPH,WindSpeedGustMPH,Humidity,HourlyPrecipIn,Conditions,Clouds,dailyrainin,SoftwareType,DateUTC
2013-04-16 00:14:00,56.1,51.0,28.45,SW,224,2.0,7.0,84,0.00,,,0.00,weatherlink.com 1.10,2013-04-16 04:14:00,
2013-04-16 00:29:00,56.1,51.0,28.44,South,188,2.0,8.0,84,0.00,,,0.00,weatherlink.com 1.10,2013-04-16 04:29:00,
2013-04-16 00:44:00,56.1,51.0,28.44,SSW,201,6.0,9.0,84,0.00,,,0.00,weatherlink.com 1.10,2013-04-16 04:44:00,
2013-04-16 00:59:00,56.2,52.0,28.44,South,179,9.0,9.0,84,0.00,,,0.00,weatherlink.com 1.10,2013-04-16 04:59:00,
2013-04-16 01:14:00,56.3,52.0,28.44,SSE,161,4.0,10.0,84,0.00,,,0.00,weatherlink.com 1.10,2013-04-16 05:14:00,
2013-04-16 01:29:00,56.3,52.0,28.44,SW,226,8.0,12.0,85,0.00,,,0.00,weatherlink.com 1.10,2013-04-16 05:29:00,
2013-04-16 01:44:00,56.1,52.0,28.43,SSW,197,4.0,5.0,85,0.00,,,0.00,weatherlink.com 1.10,2013-04-16 05:44:00,
2013-04-16 01:59:00,56.1,52.0,28.43,SSW,193,2.0,7.0,85,0.00,,,0.00,weatherlink.com 1.10,2013-04-16 05:59:00,
2013-04-16 02:14:00,56.0,52.0,28.43,South,187,3.0,7.0,85,0.00,,,0.00,weatherlink.com 1.10,2013-04-16 06:14:00,
2013-04-16 02:29:00,56.1,52.0,28.43,SSW,197,1.0,6.0,85,0.00,,,0.00,weatherlink.com 1.10,2013-04-16 06:29:00,
2013-04-16 02:44:00,56.1,52.0,28.43,South,190,1.0,6.0,86,0.00,,,0.00,weatherlink.com 1.10,2013-04-16 06:44:00,
2013-04-16 02:59:00,56.1,52.0,28.42,SW,217,3.0,5.0,86,0.00,,,0.00,weatherlink.com 1.10,2013-04-16 06:59:00,
2013-04-16 03:14:00,56.0,52.0,28.42,SSW,192,3.0,7.0,86,0.00,,,0.00,weatherlink.com 1.10,2013-04-16 07:14:00,
2013-04-16 03:29:00,55.9,52.0,28.42,SSW,197,3.0,7.0,87,0.00,,,0.00,weatherlink.com 1.10,2013-04-16 07:29:00,
2013-04-16 03:44:00,55.8,52.0,28.42,SSW,208,3.0,6.0,88,0.00,,,0.00,weatherlink.com 1.10,2013-04-16 07:44:00,
2013-04-16 03:59:00,55.7,52.0,28.42,South,191,4.0,6.0,88,0.00,,,0.00,weatherlink.com 1.10,2013-04-16 07:59:00,
2013-04-16 04:14:00,55.6,53.0,28.42,South,188,0.0,4.0,89,0.00,,,0.00,weatherlink.com 1.10,2013-04-16 08:14:00,
2013-04-16 04:29:00,55.5,52.0,28.42,SW,219,0.0,6.0,89,0.00,,,0.00,weatherlink.com 1.10,2013-04-16 08:29:00,
2013-04-16 04:44:00,55.5,52.0,28.42,SSW,192,2.0,5.0,89,0.00,,,0.00,weatherlink.com 1.10,2013-04-16 08:44:00,
2013-04-16 04:59:00,55.7,53.0,28.42,SW,231,1.0,5.0,89,0.00,,,0.00,weatherlink.com 1.10,2013-04-16 08:59:00,
2013-04-16 05:14:00,55.7,53.0,28.43,SSW,195,0.0,6.0,89,0.00,,,0.00,weatherlink.com 1.10,2013-04-16 09:14:00,
2013-04-16 05:29:00,55.7,53.0,28.43,SSW,193,0.0,3.0,90,0.00,,,0.00,weatherlink.com 1.10,2013-04-16 09:29:00,
2013-04-16 05:44:00,55.7,53.0,28.43,SW,222,0.0,7.0,90,0.00,,,0.00,weatherlink.com 1.10,2013-04-16 09:44:00,
2013-04-16 05:59:00,55.8,53.0,28.43,SSW,197,2.0,4.0,89,0.00,,,0.00,weatherlink.com 1.10,2013-04-16 09:59:00,
2013-04-16 06:14:00,56.0,53.0,28.44,SW,219,5.0,7.0,89,0.00,,,0.00,weatherlink.com 1.10,2013-04-16 10:14:00,
2013-04-16 06:29:00,56.2,53.0,28.44,SSW,199,5.0,6.0,89,0.00,,,0.00,weatherlink.com 1.10,2013-04-16 10:29:00,
2013-04-16 06:44:00,56.1,53.0,28.45,SSW,204,2.0,6.0,89,0.00,,,0.00,weatherlink.com 1.10,2013-04-16 10:44:00,
2013-04-16 06:59:00,56.2,53.0,28.45,SW,219,7.0,9.0,89,0.00,,,0.00,weatherlink.com 1.10,2013-04-16 10:59:00,
2013-04-16 07:14:00,56.6,53.0,28.46,SSE,150,4.0,11.0,88,0.00,,,0.00,weatherlink.com 1.10,2013-04-16 11:14:00,
2013-04-16 07:29:00,56.6,54.0,28.46,SSE,166,3.0,8.0,89,0.00,,,0.00,weatherlink.com 1.10,2013-04-16 11:29:00,
2013-04-16 07:45:00,57.0,54.0,28.47,SSE,162,2.0,7.0,89,0.00,,,0.00,weatherlink.com 1.10,2013-04-16 11:45:00,
2013-04-16 08:00:00,57.5,54.0,28.47,South,170,3.0,7.0,88,0.00,,,0.00,weatherlink.com 1.10,2013-04-16 12:00:00,
2013-04-16 08:15:00,57.8,54.0,28.47,SSE,167,4.0,7.0,87,0.00,,,0.00,weatherlink.com 1.10,2013-04-16 12:15:00,
2013-04-16 08:30:00,58.7,55.0,28.47,South,169,2.0,11.0,86,0.00,,,0.00,weatherlink.com 1.10,2013-04-16 12:30:00,
2013-04-16 08:45:00,59.5,55.0,28.47,SSE,160,4.0,11.0,84,0.00,,,0.00,weatherlink.com 1.10,2013-04-16 12:45:00,
2013-04-16 09:00:00,59.7,55.0,28.47,SSW,200,4.0,11.0,83,0.00,,,0.00,weatherlink.com 1.10,2013-04-16 13:00:00,
2013-04-16 09:15:00,59.7,55.0,28.47,SSW,204,3.0,10.0,83,0.00,,,0.00,weatherlink.com 1.10,2013-04-16 13:15:00,
2013-04-16 09:30:00,62.0,56.0,28.47,SSE,165,12.0,13.0,81,0.00,,,0.00,weatherlink.com 1.10,2013-04-16 13:30:00,
2013-04-16 09:45:00,62.6,56.0,28.46,SSE,165,8.0,14.0,79,0.00,,,0.00,weatherlink.com 1.10,2013-04-16 13:45:00,
2013-04-16 10:00:00,62.6,56.0,28.47,South,183,5.0,14.0,78,0.00,,,0.00,weatherlink.com 1.10,2013-04-16 14:00:00,
2013-04-16 10:15:00,61.9,55.0,28.47,SE,143,5.0,14.0,79,0.00,,,0.00,weatherlink.com 1.10,2013-04-16 14:15:00,
2013-04-16 10:30:00,63.3,56.0,28.48,SSE,153,9.0,13.0,78,0.00,,,0.00,weatherlink.com 1.10,2013-04-16 14:30:00,
2013-04-16 10:45:00,64.5,57.0,28.48,South,173,12.0,16.0,76,0.00,,,0.00,weatherlink.com 1.10,2013-04-16 14:45:00,
2013-04-16 11:00:00,64.7,56.0,28.48,SSW,201,10.0,18.0,74,0.00,,,0.00,weatherlink.com 1.10,2013-04-16 15:00:00,
2013-04-16 11:15:00,65.5,57.0,28.48,South,176,8.0,15.0,73,0.00,,,0.00,weatherlink.com 1.10,2013-04-16 15:15:00,
2013-04-16 11:30:00,65.5,57.0,28.47,SSE,155,10.0,17.0,73,0.00,,,0.00,weatherlink.com 1.10,2013-04-16 15:30:00,
2013-04-16 11:45:00,66.4,57.0,28.47,SSE,163,11.0,17.0,71,0.00,,,0.00,weatherlink.com 1.10,2013-04-16 15:45:00,
2013-04-16 12:00:00,67.0,57.0,28.46,SSE,160,10.0,15.0,71,0.00,,,0.00,weatherlink.com 1.10,2013-04-16 16:00:00,
2013-04-16 12:15:00,68.0,57.0,28.46,SSE,166,6.0,15.0,69,0.00,,,0.00,weatherlink.com 1.10,2013-04-16 16:15:00,
2013-04-16 12:30:00,69.0,58.0,28.45,SSE,159,6.0,13.0,67,0.00,,,0.00,weatherlink.com 1.10,2013-04-16 16:30:00,
2013-04-16 12:45:00,69.7,59.0,28.44,South,172,4.0,13.0,68,0.00,,,0.00,weatherlink.com 1.10,2013-04-16 16:45:00,
2013-04-16 13:00:00,70.8,58.0,28.43,SSE,167,4.0,12.0,65,0.00,,,0.00,weatherlink.com 1.10,2013-04-16 17:00:00,
2013-04-16 13:15:00,71.4,58.0,28.42,South,190,6.0,13.0,63,0.00,,,0.00,weatherlink.com 1.10,2013-04-16 17:15:00,
2013-04-16 13:30:00,71.9,59.0,28.41,South,180,10.0,13.0,64,0.00,,,0.00,weatherlink.com 1.10,2013-04-16 17:30:00,
2013-04-16 13:45:00,72.7,60.0,28.41,WSW,239,7.0,14.0,64,0.00,,,0.00,weatherlink.com 1.10,2013-04-16 17:45:00,
2013-04-16 14:00:00,72.9,59.0,28.41,South,170,8.0,13.0,63,0.00,,,0.00,weatherlink.com 1.10,2013-04-16 18:00:00,
2013-04-16 14:15:00,74.0,60.0,28.41,South,179,8.0,10.0,62,0.00,,,0.00,weatherlink.com 1.10,2013-04-16 18:15:00,
2013-04-16 14:31:00,73.9,60.0,28.40,SSE,150,6.0,13.0,62,0.00,,,0.00,weatherlink.com 1.10,2013-04-16 18:31:00,
2013-04-16 14:46:00,73.9,59.0,28.39,SSE,159,4.0,9.0,60,0.00,,,0.00,weatherlink.com 1.10,2013-04-16 18:46:00,
2013-04-16 15:01:00,75.1,61.0,28.39,South,174,5.0,10.0,61,0.00,,,0.00,weatherlink.com 1.10,2013-04-16 19:01:00,
2013-04-16 15:16:00,76.2,61.0,28.39,SW,229,3.0,9.0,60,0.00,,,0.00,weatherlink.com 1.10,2013-04-16 19:16:00,
2013-04-16 15:46:00,76.1,59.0,28.37,SSE,153,3.0,9.0,56,0.00,,,0.00,weatherlink.com 1.10,2013-04-16 19:46:00,
2013-04-16 16:01:00,76.1,61.0,28.36,South,177,7.0,10.0,59,0.00,,,0.00,weatherlink.com 1.10,2013-04-16 20:01:00,
2013-04-16 16:16:00,75.8,59.0,28.36,SW,222,5.0,8.0,56,0.00,,,0.00,weatherlink.com 1.10,2013-04-16 20:16:00,
2013-04-16 16:31:00,76.1,60.0,28.36,South,173,4.0,9.0,57,0.00,,,0.00,weatherlink.com 1.10,2013-04-16 20:31:00,
2013-04-16 16:46:00,76.2,60.0,28.36,West,260,0.0,9.0,58,0.00,,,0.00,weatherlink.com 1.10,2013-04-16 20:46:00,
2013-04-16 17:01:00,76.6,59.0,28.36,SSW,212,3.0,8.0,55,0.00,,,0.00,weatherlink.com 1.10,2013-04-16 21:01:00,
2013-04-16 17:16:00,75.8,59.0,28.36,SW,231,4.0,8.0,57,0.00,,,0.00,weatherlink.com 1.10,2013-04-16 21:16:00,
2013-04-16 17:31:00,76.3,59.0,28.35,SSW,201,1.0,4.0,55,0.00,,,0.00,weatherlink.com 1.10,2013-04-16 21:31:00,
2013-04-16 17:46:00,75.9,58.0,28.35,SSW,201,2.0,6.0,55,0.00,,,0.00,weatherlink.com 1.10,2013-04-16 21:46:00,
2013-04-16 18:01:00,75.5,59.0,28.35,SW,214,1.0,6.0,57,0.00,,,0.00,weatherlink.com 1.10,2013-04-16 22:01:00,
2013-04-16 18:16:00,75.2,59.0,28.34,WNW,284,4.0,8.0,58,0.00,,,0.00,weatherlink.com 1.10,2013-04-16 22:16:00,
2013-04-16 18:31:00,74.3,58.0,28.34,West,261,3.0,8.0,58,0.00,,,0.00,weatherlink.com 1.10,2013-04-16 22:31:00,
2013-04-16 18:46:00,73.7,58.0,28.34,West,264,3.0,8.0,59,0.00,,,0.00,weatherlink.com 1.10,2013-04-16 22:46:00,
2013-04-16 19:01:00,73.0,58.0,28.34,WSW,242,5.0,7.0,60,0.00,,,0.00,weatherlink.com 1.10,2013-04-16 23:01:00,
2013-04-16 19:16:00,72.4,59.0,28.34,SW,229,3.0,5.0,62,0.00,,,0.00,weatherlink.com 1.10,2013-04-16 23:16:00,
2013-04-16 19:31:00,71.5,58.0,28.34,SW,229,1.0,4.0,63,0.00,,,0.00,weatherlink.com 1.10,2013-04-16 23:31:00,
2013-04-16 19:46:00,70.2,58.0,28.36,WSW,240,2.0,4.0,66,0.00,,,0.00,weatherlink.com 1.10,2013-04-16 23:46:00,
2013-04-16 20:02:00,69.7,59.0,28.36,WSW,243,1.0,8.0,68,0.00,,,0.00,weatherlink.com 1.10,2013-04-17 00:02:00,
2013-04-16 20:17:00,69.1,59.0,28.36,SW,226,5.0,8.0,70,0.00,,,0.00,weatherlink.com 1.10,2013-04-17 00:17:00,
2013-04-16 20:32:00,69.2,59.0,28.36,WNW,294,2.0,9.0,69,0.00,,,0.00,weatherlink.com 1.10,2013-04-17 00:32:00,
2013-04-16 20:47:00,68.7,59.0,28.36,SSW,195,3.0,14.0,70,0.00,,,0.00,weatherlink.com 1.10,2013-04-17 00:47:00,
2013-04-16 21:02:00,68.1,58.0,28.37,South,187,6.0,12.0,71,0.00,,,0.00,weatherlink.com 1.10,2013-04-17 01:02:00,
2013-04-16 21:17:00,67.6,58.0,28.39,South,173,1.0,6.0,72,0.00,,,0.00,weatherlink.com 1.10,2013-04-17 01:17:00,
2013-04-16 21:32:00,66.9,58.0,28.40,SW,219,1.0,8.0,74,0.00,,,0.00,weatherlink.com 1.10,2013-04-17 01:32:00,
2013-04-16 21:47:00,66.2,58.0,28.40,South,188,0.0,4.0,75,0.00,,,0.00,weatherlink.com 1.10,2013-04-17 01:47:00,
2013-04-16 22:02:00,65.8,58.0,28.41,SW,219,0.0,8.0,76,0.00,,,0.00,weatherlink.com 1.10,2013-04-17 02:02:00,
2013-04-16 22:17:00,65.8,58.0,28.41,SW,219,2.0,5.0,76,0.00,,,0.00,weatherlink.com 1.10,2013-04-17 02:17:00,
2013-04-16 22:32:00,65.8,58.0,28.40,SSW,197,0.0,5.0,76,0.00,,,0.00,weatherlink.com 1.10,2013-04-17 02:32:00,
2013-04-16 22:47:00,65.5,58.0,28.40,South,177,1.0,5.0,77,0.00,,,0.00,weatherlink.com 1.10,2013-04-17 02:47:00,
2013-04-16 23:02:00,65.4,58.0,28.40,South,181,0.0,5.0,77,0.00,,,0.00,weatherlink.com 1.10,2013-04-17 03:02:00,
2013-04-16 23:17:00,65.4,58.0,28.44,ENE,71,0.0,7.0,77,0.00,,,0.00,weatherlink.com 1.10,2013-04-17 03:17:00,
2013-04-16 23:32:00,66.4,56.0,28.46,South,172,0.0,17.0,70,0.00,,,0.00,weatherlink.com 1.10,2013-04-17 03:32:00,
2013-04-16 23:47:00,63.7,59.0,28.47,NNE,27,3.0,6.0,83,0.06,,,0.06,weatherlink.com 1.10,2013-04-17 03:47:00,